| time (UTC) | temp F | wind direction | speed MPH | gust MPH | rain 1hr in | rain 24hr in | rain mn in | humidity % | barometer mb |
| 20260904193030 | 87 | 258 | 3.0 | 4.0 | 0.00 | 0.04 | 0.00 | 77 | 1016.7 |
| 20260904192017 | 85 | 279 | 2.0 | 3.0 | 0.00 | 0.04 | 0.00 | 78 | 1016.8 |
| 20260904191023 | 75 | 297 | 4.0 | 6.0 | 0.00 | 0.04 | 0.00 | 70 | 1016.7 |
| 20260904190027 | 88 | 317 | 4.0 | 7.0 | 0.00 | 0.04 | 0.00 | 73 | 1016.8 |
| 20260904185033 | 89 | 289 | 4.0 | 7.0 | 0.00 | 0.04 | 0.00 | 72 | 1017.1 |
| 20260904184019 | 87 | 302 | 4.0 | 6.0 | 0.00 | 0.04 | 0.00 | 75 | 1017.4 |
| 20260904183025 | 87 | 275 | 2.0 | 4.0 | 0.00 | 0.04 | 0.00 | 76 | 1017.6 |
| 20260904182029 | 87 | 296 | 5.0 | 7.0 | 0.00 | 0.04 | 0.00 | 75 | 1017.8 |
| 20260904181016 | 87 | 298 | 4.0 | 6.0 | 0.00 | 0.04 | 0.00 | 75 | 1017.9 |
| 20260904180021 | 87 | 2.0 | 2.0 | 0.00 | 0.04 | 0.00 | 77 | 1018.1 | |
| 20260904175025 | 87 | 299 | 5.0 | 6.0 | 0.00 | 0.04 | 0.00 | 76 | 1018.0 |
| 20260904174031 | 87 | 297 | 4.0 | 6.0 | 0.00 | 0.04 | 0.00 | 75 | 1018.0 |
| 20260904173018 | 86 | 294 | 5.0 | 7.0 | 0.00 | 0.04 | 0.00 | 76 | 1018.1 |
| 20260904172022 | 87 | 315 | 5.0 | 9.0 | 0.00 | 0.04 | 0.00 | 76 | 1018.1 |
| 20260904171027 | 86 | 264 | 3.0 | 4.0 | 0.00 | 0.04 | 0.00 | 78 | 1018.1 |
| 20260904170027 | 85 | 264 | 4.0 | 6.0 | 0.00 | 0.04 | 0.00 | 78 | 1018.1 |
| 20260904165019 | 85 | 230 | 4.0 | 6.0 | 0.00 | 0.04 | 0.00 | 77 | 1018.3 |
| 20260904164024 | 85 | 302 | 4.0 | 6.0 | 0.00 | 0.04 | 0.00 | 76 | 1018.3 |
| 20260904163023 | 85 | 266 | 3.0 | 5.0 | 0.00 | 0.04 | 0.00 | 76 | 1018.3 |
| 20260904162016 | 84 | 318 | 6.0 | 9.0 | 0.00 | 0.04 | 0.00 | 77 | 1018.5 |
| 20260904161021 | 83 | 299 | 4.0 | 7.0 | 0.00 | 0.04 | 0.00 | 79 | 1018.6 |
| 20260904160020 | 84 | 262 | 4.0 | 5.0 | 0.00 | 0.04 | 0.00 | 78 | 1018.6 |
| 20260904155019 | 82 | 11 | 3.0 | 4.0 | 0.00 | 0.04 | 0.00 | 79 | 1018.6 |
| 20260904154018 | 83 | 285 | 4.0 | 6.0 | 0.00 | 0.04 | 0.00 | 79 | 1018.6 |
| 20260904153016 | 83 | 249 | 4.0 | 7.0 | 0.00 | 0.04 | 0.00 | 80 | 1018.6 |
| 20260904152015 | 82 | 299 | 4.0 | 6.0 | 0.00 | 0.04 | 0.00 | 80 | 1018.8 |
| 20260904151033 | 81 | 290 | 3.0 | 5.0 | 0.00 | 0.04 | 0.00 | 81 | 1018.6 |
| 20260904150040 | 81 | 264 | 2.0 | 5.0 | 0.00 | 0.04 | 0.00 | 82 | 1018.8 |
| 20260904145044 | 80 | 260 | 3.0 | 5.0 | 0.00 | 0.04 | 0.00 | 83 | 1018.8 |
| 20260904144050 | 80 | 255 | 4.0 | 6.0 | 0.00 | 0.06 | 0.00 | 84 | 1018.8 |
| 20260904143016 | 80 | 311 | 4.0 | 5.0 | 0.00 | 0.06 | 0.00 | 84 | 1018.8 |
| 20260904142101 | 80 | 253 | 4.0 | 5.0 | 0.00 | 0.08 | 0.00 | 84 | 1018.6 |
| 20260904141026 | 78 | 344 | 2.0 | 3.0 | 0.00 | 0.08 | 0.00 | 88 | 1018.6 |
| 20260904140031 | 78 | 304 | 4.0 | 5.0 | 0.00 | 0.12 | 0.00 | 87 | 1018.6 |
| 20260904135058 | 77 | 295 | 4.0 | 7.0 | 0.00 | 0.12 | 0.00 | 90 | 1018.6 |
| 20260904134043 | 75 | 180 | 1.0 | 3.0 | 0.00 | 0.12 | 0.00 | 96 | 1018.7 |
| 20260904133048 | 73 | 0.0 | 0.0 | 0.00 | 0.12 | 0.00 | 99 | 1018.8 | |
| 20260904132033 | 72 | 0.0 | 0.0 | 0.00 | 0.12 | 0.00 | 99 | 1018.6 | |
| 20260904131020 | 72 | 158 | 0.0 | 1.0 | 0.00 | 0.12 | 0.00 | 99 | 1018.6 |
| 20260904130025 | 71 | 90 | 0.0 | 2.0 | 0.00 | 0.12 | 0.00 | 99 | 1018.8 |
| 20260904125029 | 70 | 203 | 0.0 | 1.0 | 0.00 | 0.12 | 0.00 | 99 | 1019.0 |
| 20260904124016 | 70 | 0.0 | 0.0 | 0.00 | 0.12 | 0.00 | 99 | 1019.1 | |
| 20260904123021 | 70 | 0.0 | 0.0 | 0.00 | 0.12 | 0.00 | 99 | 1019.0 | |
| 20260904122026 | 69 | 0.0 | 0.0 | 0.00 | 0.12 | 0.00 | 99 | 1018.6 | |
| 20260904121031 | 69 | 315 | 0.0 | 2.0 | 0.00 | 0.12 | 0.00 | 99 | 1018.6 |
| 20260904120039 | 68 | 0.0 | 0.0 | 0.00 | 0.12 | 0.00 | 99 | 1018.8 | |
| 20260904115043 | 68 | 0.0 | 1.0 | 0.00 | 0.12 | 0.00 | 99 | 1018.8 | |
| 20260904114028 | 68 | 0.0 | 0.0 | 0.00 | 0.12 | 0.00 | 99 | 1018.8 | |
| 20260904113053 | 68 | 196 | 1.0 | 4.0 | 0.00 | 0.12 | 0.00 | 99 | 1018.6 |
| 20260904112020 | 67 | 0.0 | 0.0 | 0.00 | 0.14 | 0.00 | 99 | 1018.8 | |
| 20260904111024 | 67 | 0.0 | 0.0 | 0.00 | 0.14 | 0.00 | 99 | 1018.6 | |
| 20260904110049 | 67 | 113 | 0.0 | 2.0 | 0.00 | 0.14 | 0.00 | 99 | 1018.1 |
| 20260904105017 | 67 | 0.0 | 1.0 | 0.00 | 0.15 | 0.00 | 99 | 1018.1 | |
| 20260904104021 | 67 | 0.0 | 0.0 | 0.00 | 0.16 | 0.00 | 99 | 1018.1 | |
| 20260904103047 | 67 | 158 | 1.0 | 3.0 | 0.00 | 0.18 | 0.00 | 99 | 1018.1 |
| 20260904102031 | 67 | 0.0 | 0.0 | 0.00 | 0.18 | 0.00 | 99 | 1017.9 | |
| 20260904101018 | 68 | 0.0 | 0.0 | 0.00 | 0.18 | 0.00 | 99 | 1017.8 | |
| 20260904100043 | 68 | 0.0 | 0.0 | 0.00 | 0.18 | 0.00 | 99 | 1017.9 | |
| 20260904095027 | 68 | 0.0 | 0.0 | 0.00 | 0.18 | 0.00 | 99 | 1017.9 | |
| 20260904094032 | 68 | 0.0 | 0.0 | 0.00 | 0.26 | 0.00 | 99 | 1017.9 | |
| 20260904093019 | 69 | 0.0 | 0.0 | 0.00 | 0.35 | 0.00 | 99 | 1017.9 | |
| 20260904092025 | 69 | 0.0 | 0.0 | 0.00 | 0.35 | 0.00 | 99 | 1017.8 | |
| 20260904091029 | 69 | 0.0 | 0.0 | 0.00 | 0.35 | 0.00 | 99 | 1017.8 | |
| 20260904090037 | 69 | 169 | 1.0 | 3.0 | 0.00 | 0.36 | 0.00 | 99 | 1017.8 |
| 20260904085042 | 69 | 203 | 0.0 | 1.0 | 0.00 | 0.36 | 0.00 | 99 | 1017.8 |
| 20260904084026 | 69 | 203 | 0.0 | 3.0 | 0.00 | 0.36 | 0.00 | 99 | 1017.8 |
| 20260904083031 | 69 | 180 | 0.0 | 2.0 | 0.00 | 0.36 | 0.00 | 99 | 1017.6 |
| 20260904082018 | 69 | 270 | 1.0 | 3.0 | 0.00 | 0.36 | 0.00 | 99 | 1017.6 |
| 20260904081023 | 69 | 226 | 1.0 | 3.0 | 0.00 | 0.36 | 0.00 | 99 | 1017.6 |
| 20260904080028 | 69 | 225 | 1.0 | 3.0 | 0.00 | 0.36 | 0.00 | 99 | 1017.6 |
| 20260904075027 | 69 | 252 | 0.0 | 2.0 | 0.00 | 0.36 | 0.00 | 99 | 1017.4 |
| 20260904074100 | 69 | 187 | 1.0 | 3.0 | 0.00 | 0.36 | 0.00 | 99 | 1017.2 |
| 20260904073024 | 69 | 196 | 1.0 | 3.0 | 0.00 | 0.36 | 0.00 | 99 | 1017.2 |
| 20260904072043 | 69 | 222 | 3.0 | 4.0 | 0.00 | 0.36 | 0.00 | 99 | 1017.2 |
| 20260904071017 | 69 | 194 | 2.0 | 4.0 | 0.00 | 0.36 | 0.00 | 99 | 1017.0 |
| 20260904070021 | 69 | 175 | 3.0 | 5.0 | 0.00 | 0.36 | 0.00 | 99 | 1016.8 |
| 20260904065020 | 69 | 223 | 1.0 | 3.0 | 0.00 | 0.36 | 0.00 | 99 | 1016.8 |
| 20260904064019 | 69 | 183 | 2.0 | 4.0 | 0.00 | 0.36 | 0.00 | 99 | 1016.7 |
| 20260904063019 | 69 | 240 | 2.0 | 5.0 | 0.00 | 0.36 | 0.00 | 99 | 1016.5 |
| 20260904062017 | 69 | 245 | 4.0 | 7.0 | 0.00 | 0.36 | 0.00 | 99 | 1016.1 |
| 20260904061016 | 69 | 255 | 2.0 | 4.0 | 0.00 | 0.36 | 0.00 | 99 | 1016.3 |
| 20260904060016 | 69 | 192 | 3.0 | 4.0 | 0.00 | 0.36 | 0.00 | 99 | 1016.5 |
| 20260904055020 | 69 | 222 | 4.0 | 7.0 | 0.00 | 0.36 | 0.00 | 99 | 1016.8 |
| 20260904054025 | 69 | 266 | 4.0 | 6.0 | 0.00 | 0.36 | 0.00 | 99 | 1017.0 |
| 20260904053030 | 68 | 232 | 3.0 | 7.0 | 0.00 | 0.36 | 0.00 | 99 | 1017.1 |
| 20260904052017 | 68 | 242 | 3.0 | 8.0 | 0.00 | 0.36 | 0.00 | 99 | 1016.7 |
| 20260904051022 | 68 | 207 | 4.0 | 6.0 | 0.00 | 0.36 | 0.00 | 99 | 1017.2 |
| 20260904050027 | 68 | 251 | 4.0 | 5.0 | 0.00 | 0.36 | 0.00 | 99 | 1017.1 |
| 20260904045052 | 69 | 199 | 2.0 | 4.0 | 0.00 | 0.36 | 0.00 | 99 | 1017.1 |
| 20260904044018 | 69 | 203 | 0.0 | 2.0 | 0.01 | 0.36 | 0.00 | 99 | 1017.2 |
| 20260904043023 | 69 | 181 | 2.0 | 4.0 | 0.01 | 0.36 | 0.00 | 99 | 1017.2 |
| 20260904042029 | 69 | 174 | 3.0 | 5.0 | 0.02 | 0.36 | 0.00 | 99 | 1017.6 |
| 20260904041015 | 69 | 180 | 0.0 | 2.0 | 0.02 | 0.36 | 0.00 | 99 | 1017.9 |
| 20260904040020 | 69 | 174 | 1.0 | 3.0 | 0.02 | 0.36 | 0.00 | 99 | 1018.1 |
| 20260904035045 | 69 | 176 | 1.0 | 3.0 | 0.03 | 0.36 | 0.36 | 99 | 1018.4 |
| 20260904034031 | 69 | 154 | 2.0 | 3.0 | 0.02 | 0.35 | 0.35 | 99 | 1018.6 |
| 20260904032534 | 70 | 135 | 3.0 | 4.0 | 0.02 | 0.34 | 0.34 | 99 | 1019.6 |
| 20260904025530 | 72 | 162 | 4.0 | 6.0 | 0.02 | 0.34 | 0.34 | 96 | 1020.0 |
| 20260904024517 | 73 | 3.0 | 3.0 | 0.01 | 0.33 | 0.33 | 99 | 1019.9 | |
| 20260904023522 | 73 | 223 | 5.0 | 11.0 | 0.01 | 0.33 | 0.33 | 97 | 1019.6 |
| 20260904022527 | 73 | 245 | 1.0 | 2.0 | 0.00 | 0.32 | 0.32 | 99 | 1019.0 |
| 20260904021532 | 74 | 264 | 2.0 | 2.0 | 0.00 | 0.32 | 0.32 | 98 | 1018.5 |
| 20260904020519 | 75 | 239 | 2.0 | 3.0 | 0.00 | 0.32 | 0.32 | 97 | 1017.9 |
| 20260904015545 | 77 | 167 | 3.0 | 4.0 | 0.00 | 0.32 | 0.32 | 93 | 1017.8 |
| 20260904014530 | 78 | 272 | 4.0 | 8.0 | 0.00 | 0.32 | 0.32 | 91 | 1018.8 |
| 20260904013538 | 78 | 270 | 8.0 | 12.0 | 0.00 | 0.32 | 0.32 | 99 | 1018.1 |
| 20260904012521 | 77 | 183 | 2.0 | 4.0 | 0.00 | 0.32 | 0.32 | 99 | 1018.0 |
| 20260904011527 | 76 | 0.0 | 2.0 | 0.00 | 0.32 | 0.32 | 99 | 1017.8 | |
| 20260904010551 | 76 | 0.0 | 0.0 | 0.00 | 0.32 | 0.32 | 99 | 1017.6 | |
| 20260904005519 | 76 | 0.0 | 0.0 | 0.00 | 0.32 | 0.32 | 99 | 1017.6 | |
| 20260904004523 | 77 | 0.0 | 0.0 | 0.00 | 0.32 | 0.32 | 99 | 1017.6 | |
| 20260904003529 | 77 | 0.0 | 0.0 | 0.00 | 0.32 | 0.32 | 99 | 1017.6 | |
| 20260904002516 | 77 | 0.0 | 0.0 | 0.00 | 0.32 | 0.32 | 99 | 1017.7 | |
| 20260904001520 | 77 | 0.0 | 0.0 | 0.00 | 0.32 | 0.32 | 99 | 1017.8 | |
| 20260904000526 | 78 | 0.0 | 0.0 | 0.00 | 0.32 | 0.32 | 99 | 1017.8 | |
| 20260903235531 | 78 | 0.0 | 0.0 | 0.00 | 0.32 | 0.32 | 99 | 1018.1 | |
| 20260903234518 | 78 | 0.0 | 0.0 | 0.00 | 0.32 | 0.32 | 99 | 1018.1 | |
| 20260903233522 | 79 | 0.0 | 0.0 | 0.00 | 0.32 | 0.32 | 99 | 1017.6 | |
| 20260903232528 | 80 | 0.0 | 0.0 | 0.00 | 0.32 | 0.32 | 98 | 1017.2 | |
| 20260903231547 | 81 | 0.0 | 0.0 | 0.00 | 0.32 | 0.32 | 97 | 1017.1 | |
| 20260903230520 | 82 | 0.0 | 0.0 | 0.00 | 0.32 | 0.32 | 94 | 1017.1 | |
| 20260903225525 | 83 | 0.0 | 0.0 | 0.00 | 0.32 | 0.32 | 92 | 1017.4 | |
| 20260903224524 | 85 | 0.0 | 0.0 | 0.00 | 0.32 | 0.32 | 89 | 1017.2 | |
| 20260903223516 | 85 | 210 | 0.0 | 2.0 | 0.00 | 0.32 | 0.32 | 86 | 1017.3 |
| 20260903222521 | 86 | 207 | 2.0 | 3.0 | 0.00 | 0.32 | 0.32 | 84 | 1017.0 |
| 20260903221521 | 87 | 226 | 3.0 | 5.0 | 0.00 | 0.32 | 0.32 | 83 | 1017.0 |
| 20260903220519 | 88 | 227 | 3.0 | 4.0 | 0.00 | 0.32 | 0.32 | 81 | 1017.0 |
| 20260903215519 | 88 | 215 | 3.0 | 5.0 | 0.00 | 0.32 | 0.32 | 81 | 1016.9 |
| 20260903214517 | 89 | 201 | 3.0 | 6.0 | 0.00 | 0.32 | 0.32 | 80 | 1017.0 |
| 20260903213517 | 87 | 194 | 4.0 | 7.0 | 0.00 | 0.32 | 0.32 | 81 | 1017.0 |
| 20260903212516 | 86 | 198 | 3.0 | 7.0 | 0.00 | 0.32 | 0.32 | 83 | 1017.0 |
| 20260903211521 | 87 | 224 | 5.0 | 9.0 | 0.00 | 0.32 | 0.32 | 82 | 1017.1 |
| 20260903210546 | 86 | 226 | 4.0 | 8.0 | 0.00 | 0.32 | 0.32 | 82 | 1017.1 |
| 20260903205551 | 86 | 178 | 6.0 | 9.0 | 0.00 | 0.32 | 0.32 | 83 | 1017.1 |
| 20260903204519 | 87 | 223 | 5.0 | 8.0 | 0.00 | 0.32 | 0.32 | 81 | 1017.2 |
| 20260903203523 | 86 | 194 | 4.0 | 6.0 | 0.00 | 0.32 | 0.32 | 82 | 1017.3 |
| 20260903202528 | 85 | 235 | 4.0 | 7.0 | 0.00 | 0.32 | 0.32 | 82 | 1017.6 |
| 20260903201535 | 86 | 237 | 6.0 | 9.0 | 0.00 | 0.32 | 0.32 | 80 | 1017.6 |
| 20260903200520 | 86 | 229 | 6.0 | 8.0 | 0.00 | 0.32 | 0.32 | 80 | 1017.6 |
| 20260903195525 | 85 | 222 | 5.0 | 7.0 | 0.00 | 0.32 | 0.32 | 81 | 1017.8 |
| 20260903194550 | 85 | 189 | 5.0 | 10.0 | 0.00 | 0.32 | 0.32 | 82 | 1017.8 |
| 20260903193517 | 85 | 210 | 6.0 | 15.0 | 0.00 | 0.32 | 0.32 | 82 | 1018.1 |